Location: Cartersville (historical)
(42.9944°N, 93.0869°W)
Time: 02:58:43
(UTC+00:00)

Envisat - Pass Details

Date: 12 October 2024
Orbit: 762 x 763 km, 98.3° (Epoch: 04 November)

Event Time Altitude Azimuth Distance (km) Brightness Sun altitude
Rises 08:46:32 0° 20° (NNE) 3,235 6.8 -39.0°
Reaches altitude 10° 08:48:59 10° 28° (NNE) 2,304 6.0 -38.7°
Enters shadow 08:50:54 22° 41° (NE) 1,647 5.2 -38.4°
